Regional Weather Roundup
Issued by NWS Cleveland, OH

Home | Current Version | Previous Version | Text Only | Print | Product List | Glossary Off
Versions: 1 2 3 4 5 6 7 8 9 10 11 12 13 14 15 16 17 18 19 20 21 22 23 24 25 26 27 28 29 30 31 32 33 34 35 36 37 38 39 40 41 42 43 44 45 46 47 48 49 50

000
ASUS41 KCLE 012110
RWRCLE
OHIO REGIONAL WEATHER ROUNDUP
NATIONAL WEATHER SERVICE CLEVELAND, OH
400 PM EST SUN FEB 01 2015

NOTE: "FAIR" INDICATES FEW OR NO CLOUDS BELOW 12,000 FEET WITH NO
SIGNIFICANT WEATHER AND/OR OBSTRUCTIONS TO VISIBILITY.

OHZ001>008-015>018-024>027-034-035-043-044-012200-
   NORTHWEST OHIO

CITY           SKY/WX    TMP DP  RH WIND       PRES   REMARKS
DEFIANCE       SNOW      29  26  89 NE12      29.74F VSB 1/4 WCI  19
FINDLAY        LGT SNOW  34  32  92 E12       29.71F VSB 3/4 WCI  25
TOLEDO EXPRESS SNOW      26  24  92 E17G29    29.77F VSB 1/4 WCI  13
TOLEDO EXEC    SNOW      29  26  89 E15G24    29.79F VSB 1/4 WCI  18
LIMA           LGT SNOW  34  32  92 E12       29.67F VSB 1   WCI  25
$$

OHZ009>014-019>023-028>033-038-089-012200-
   NORTHEAST OHIO

CITY           SKY/WX    TMP DP  RH WIND       PRES   REMARKS
CLE-HOPKINS    CLOUDY    32  29  88 E9        29.85F FOG     WCI  24
CLE-LAKEFRONT  LGT SNOW  32  29  88 E8        29.84F FOG     WCI  25
CUY CO. ARPT   LGT SNOW  32  30  93 E12       29.85F WCI  23
LORAIN-ELYRIA  LGT SNOW  32  30  92 E9        29.81F FOG     WCI  24
ASHTABULA      LGT SNOW  30  27  88 E7        29.91F VSB 3/4 WCI  23
AKRON-CANTON   LGT SNOW  33  29  85 SE13      29.83F FOG     WCI  24
WOOSTER        LGT SNOW  32  30  92 SE13      29.80F VSB 1   WCI  22
MANSFIELD      SNOW      33  32  96 E13       29.75F VSB 1/2 WCI  24
YOUNGSTOWN     LGT SNOW  30  28  92 E13       29.86F FOG     WCI  20
$$

OHZ042-051>053-060>062-070>072-077>081-012200-
  SOUTHWEST OHIO

CITY           SKY/WX    TMP DP  RH WIND       PRES   REMARKS
CINC-COVINGTON LGT RAIN  43  39  87 S16G24    29.65F FOG
CINC-LUNKEN    CLOUDY    42  39  89 S9G18     29.70F
HAMILTON       LGT RAIN  43  41  93 S7        29.67F FOG
DAYTON         LGT RAIN  37  36  96 SE12      29.65F FOG
WRIGHT-PAT AFB DRIZZLE   38  37  97 S6        29.67F FOG
DAYTON GENERAL CLOUDY    41  39  93 S14       29.66F FOG
WILMINGTON     CLOUDY    39  35  86 S17G24    29.67F
$$

OHZ036-037-039>041-045>050-054>059-063>069-073>076-082>088-012200-
  CENTRAL AND SOUTHEAST OHIO

CITY           SKY/WX    TMP DP  RH WIND       PRES   REMARKS
COLUMBUS       LGT RAIN  35  31  85 SE12      29.73F WCI  27
OSU AIRPORT    CLOUDY    36  32  85 SE15      29.71F
BOLTON FIELD   LGT RAIN  36  32  87 SE10      29.72F
RICKENBACK AFB RAIN      37  33  85 SE12      29.73F
NEWARK         RAIN      37  32  82 SE10      29.78F
MARION         LGT RAIN  34  31  88 SE14      29.71F FOG     WCI  25
LANCASTER      LGT RAIN  36  32  85 SE13      29.76F FOG
ZANESVILLE     CLOUDY    36  31  82 SE8       29.80F
NEW PHILLY     LGT RAIN  36  32  85 SE3       29.83F
$$


USA.gov is the U.S. government's official web portal to all federal, state and local government web resources and services.